Theta_e
338 340 340 341 343 344 348 350 352 354 359 362 364 361 361 361 364 351 348 357 352 350 348 351 371 365 364 366 367 364 369 362 359
333 338 341 342 343 345 348 350 353 354 359 362 363 356 362 364 363 358 351 357 364 357 362 352 361 364 364 364 364 368 371 359 363
332 337 340 342 344 345 347 348 351 355 357 361 362 360 362 362 363 365 363 365 368 363 365 366 361 362 361 363 366 367 373 364 368
330 334 339 342 344 347 348 349 350 351 354 358 359 361 362 360 360 361 364 365 367 368 367 369 368 365 364 363 363 367 371 370 366
328 332 337 342 344 347 348 349 349 351 351 351 356 359 363 361 361 361 360 362 366 370 369 367 368 368 367 365 364 368 369 364 361
327 330 334 341 343 345 347 349 351 350 351 351 352 358 359 360 359 361 359 364 364 368 369 370 363 368 369 366 364 367 370 369 366
324 329 334 337 341 343 346 352 355 355 351 351 351 353 354 358 360 361 360 364 367 367 370 369 369 370 370 367 366 365 365 367 367
324 325 330 334 339 346 353 354 358 359 354 356 354 356 355 358 363 363 364 363 367 368 369 370 371 371 370 369 363 358 365 367 367
323 325 328 331 336 341 347 354 358 360 358 358 357 358 356 359 362 364 363 364 367 369 369 370 371 370 370 368 359 343 339 356 363
323 325 328 331 331 337 341 346 356 357 360 360 360 361 360 362 364 364 365 366 368 368 369 371 371 370 370 369 369 336 334 339 358
334 335 333 337 338 339 340 343 346 354 357 363 362 361 364 363 366 365 367 368 367 368 369 369 369 371 371 371 370 337 330 335 361
337 339 340 342 344 344 347 343 345 354 354 363 362 363 364 365 366 366 368 367 368 369 369 369 369 371 372 372 371 333 329 336 360
337 340 341 343 346 347 348 349 347 345 351 356 361 364 364 368 368 368 368 369 370 372 371 370 366 368 372 360 373 334 326 336 358
333 338 341 345 348 347 350 353 350 351 351 354 361 364 367 369 369 370 371 372 372 372 371 366 370 368 371 372 367 368 325 322 363
327 330 334 341 351 352 354 355 357 357 354 359 366 366 366 369 371 367 366 372 372 372 371 370 370 370 368 366 373 342 326 321 327
322 322 329 334 348 353 350 356 359 359 357 368 366 367 367 368 371 370 370 370 371 366 370 361 361 360 358 357 361 366 327 320 321
317 319 320 325 337 353 354 358 357 359 372 369 369 367 366 368 368 368 369 365 365 361 359 359 357 356 355 354 355 354 360 353 339
314 316 318 320 326 334 339 347 353 358 364 367 363 366 366 364 363 362 365 368 359 361 348 345 357 353 352 349 351 351 342 349 361
315 315 317 317 321 325 326 330 332 336 342 365 362 361 359 359 358 360 361 352 348 309 316 305 304 305 326 355 317 314 309 314 314
315 315 317 318 319 322 324 325 328 334 337 349 360 358 364 359 353 358 360 359 355 350 329 304 302 305 306 308 309 305 305 305 307
Wind_Speed
26 26 24 25 26 26 25 25 24 23 23 22 20 20 19 17 15 12 12 10 9 10 9 8 13 11 10 9 10 8 7 7 7
19 28 25 25 26 26 25 24 25 25 23 23 22 23 17 17 16 16 13 13 12 9 9 7 9 12 11 11 10 9 8 7 8
15 22 25 23 24 26 25 26 25 24 22 23 23 22 19 17 18 17 14 13 12 13 9 9 5 10 10 11 10 10 9 8 9
17 17 19 19 22 24 25 24 24 26 24 22 22 22 21 20 18 18 17 13 13 11 10 9 10 8 10 11 11 11 10 10 7
25 22 18 20 21 23 24 25 24 24 25 26 24 22 20 20 19 19 18 17 15 13 13 12 10 11 11 11 12 12 12 12 10
20 22 23 20 21 22 23 25 23 24 24 26 25 22 23 21 20 20 19 19 17 16 14 14 15 13 12 12 12 12 12 12 12
21 17 19 21 20 21 21 21 21 21 24 24 24 24 24 22 22 21 20 18 18 17 16 15 15 14 14 14 13 13 13 13 13
14 16 18 17 20 17 18 19 19 20 21 21 23 22 22 22 21 21 19 19 18 17 17 16 15 14 14 15 14 13 14 13 13
8 9 8 9 15 15 18 19 18 20 21 20 22 21 22 20 20 19 20 19 18 18 17 17 16 15 15 15 14 15 15 14 13
19 13 11 8 11 15 15 17 18 19 22 20 20 19 20 19 20 20 20 20 19 19 18 16 16 16 16 16 16 12 15 17 14
12 10 2 7 11 12 12 16 20 19 20 20 19 20 19 20 19 20 19 19 20 19 17 18 16 16 16 15 14 14 14 15 14
7 8 9 11 13 14 13 13 14 17 18 20 20 20 20 21 20 20 19 20 20 18 17 16 16 16 17 17 15 17 16 14 14
7 9 11 13 14 14 15 16 15 16 22 20 22 21 23 19 19 19 21 20 19 17 16 17 15 17 16 16 16 14 17 17 14
6 9 10 13 15 16 17 17 18 17 19 22 22 19 17 18 19 19 19 17 16 16 17 16 15 16 14 16 17 16 19 20 15
6 9 11 12 15 16 17 18 16 18 18 19 15 17 18 18 18 16 15 17 15 16 15 14 14 14 14 14 15 16 16 20 22
9 11 12 13 17 15 11 13 15 16 17 15 17 17 18 17 17 16 14 16 15 13 14 14 14 14 14 13 13 13 16 19 20
11 13 14 14 15 11 13 10 11 14 13 14 15 16 17 15 16 15 14 14 14 13 14 14 13 13 13 13 12 11 12 13 11
12 11 12 12 11 12 16 16 17 6 11 13 15 15 15 15 15 15 14 10 10 13 4 4 13 12 12 12 12 13 13 12 12
8 12 10 12 13 14 14 13 14 16 17 6 14 15 13 13 15 14 12 11 7 13 14 13 11 11 5 4 10 12 7 18 12
7 10 10 11 13 12 12 12 14 14 14 14 6 13 15 14 13 14 12 13 12 11 5 8 15 12 14 13 9 8 11 12 14
Wind_Direction
185 182 184 187 192 193 192 194 190 191 184 189 193 196 194 197 197 204 221 209 215 222 221 209 146 181 201 224 180 221 177 197 226
214 180 183 187 190 193 192 196 191 192 187 187 192 196 194 191 199 213 201 225 209 228 223 224 175 180 201 210 217 201 190 225 211
206 200 181 186 189 193 194 197 195 193 195 191 192 196 194 194 193 198 218 201 208 213 224 228 222 195 204 214 214 214 208 204 200
229 233 174 195 187 192 195 195 197 196 196 193 196 199 196 198 195 198 204 211 202 219 219 220 210 226 208 214 215 210 205 242 220
221 217 207 188 194 194 190 195 196 196 197 198 196 200 198 198 194 197 198 206 209 201 211 216 218 214 212 216 214 208 205 214 226
227 231 213 191 200 190 193 192 196 198 197 200 198 198 197 196 199 197 201 196 205 204 206 209 216 208 210 209 216 217 210 213 223
229 227 218 194 198 191 194 193 191 196 198 202 200 194 201 198 198 199 199 199 197 204 202 205 211 212 205 208 214 218 219 212 219
249 241 219 216 202 190 183 192 190 190 201 199 199 193 199 197 197 199 197 199 197 201 203 204 208 210 210 203 214 217 216 220 214
195 258 282 262 197 221 194 188 193 189 196 201 202 194 198 194 191 195 197 196 196 197 203 205 205 210 210 209 216 210 202 210 221
261 242 220 243 247 220 219 200 192 201 194 202 198 203 193 196 188 195 197 195 193 197 200 202 207 209 210 211 216 209 197 200 223
320 330 295 277 268 254 239 219 200 201 195 196 208 201 193 196 192 195 195 197 198 197 196 202 203 208 211 214 213 204 196 198 217
289 294 281 265 264 266 269 250 227 187 204 188 206 199 203 194 197 192 195 198 200 198 198 199 203 207 210 212 219 197 194 188 219
260 271 271 271 268 260 248 242 244 208 193 198 198 206 200 197 197 196 197 197 197 198 200 202 204 208 209 211 218 194 195 191 223
292 287 289 283 269 256 246 242 225 232 200 202 202 200 194 194 199 199 198 197 196 198 202 205 207 210 210 212 212 216 190 191 215
1 337 330 322 295 259 240 227 225 215 227 200 185 187 194 194 196 201 195 197 194 198 202 208 205 212 207 211 217 210 194 190 207
15 1 347 350 315 292 237 210 220 208 225 176 176 183 188 192 189 192 199 192 195 192 198 210 213 206 220 222 212 218 200 193 202
21 14 6 356 347 9 15 330 195 209 185 169 171 178 186 183 185 187 203 186 196 203 199 204 211 218 212 223 229 221 207 204 206
24 9 14 0 3 24 24 21 16 354 169 172 177 183 186 179 186 185 191 190 204 199 69 216 216 213 216 221 223 222 220 212 188
12 16 15 2 15 29 20 19 17 8 351 216 189 188 183 180 187 170 185 158 126 25 113 117 109 95 56 342 17 70 121 114 103
40 25 15 13 17 19 18 22 16 7 355 323 210 194 187 177 193 160 179 172 173 152 114 85 82 85 56 38 53 56 96 92 101